Location: Alvis C Story Elementary School
(33.0968°N, 96.6364°W)
Time: 12:26:21
(UTC+00:00)

Lacrosse 5 rocket - Pass Details

Date: 02 July 2022
Orbit: 455 x 628 km, 57.0° (Epoch: 07 August)

Event Time Altitude Azimuth Distance (km) Brightness Sun altitude
Rises 04:49:10 0° 306° (NW) 2,644 5.7 -28.9°
Reaches altitude 10° 04:51:36 10° 293° (WNW) 1,785 4.5 -29.1°
Enters shadow 04:52:55 17° 278° (W) 1,411 3.7 -29.2°
